Simultaneous Nadir Overpasses (SNOs) Predictions

Prediction of SNOs between GOES-17 and NOAA-19 Satellite Orbit:

Table of predicted SNOs for the next 14.0 days since TLE Epoch: 7/18/2025
Index Date Time (GOES-17) GOES-17 Lat,Lon NOAA-19 Lat,Lon Distance(km) Time Diff (sec)
1 07/19/2025 15:53:21 -0.01, -89.51 0.10, -90.10 66.38 80
2 07/20/2025 15:38:02 -0.01, -89.51 -0.58, -87.02 283.82 80
3 07/23/2025 03:59:14 0.00, -89.50 -0.43, -91.45 222.76 80
4 07/24/2025 03:43:55 0.01, -89.50 0.25, -88.37 127.81 80
5 07/25/2025 03:31:16 0.02, -89.50 0.99, -85.31 478.52 80
6 07/26/2025 16:05:08 -0.00, -89.53 0.77, -92.80 373.94 80
7 07/27/2025 15:52:29 -0.01, -89.54 0.01, -89.74 22.84 80
8 07/28/2025 15:37:10 -0.02, -89.55 -0.68, -86.67 328.68 80
9 07/31/2025 03:58:23 0.00, -89.56 -0.37, -91.09 175.34 80
10 08/01/2025 03:43:04 0.01, -89.57 0.38, -88.03 176.45 80
